• Processing (Info)

  • MPEC 2022-S142 : 2022 SV4

    The following Minor Planet Electronic Circular may be linked-to from your own Web pages, but must not otherwise be redistributed electronically.

    A form allowing access to any MPEC is at the bottom of this page.


    Read MPEC 2022-S141 Read MPEC 2022-S143


    M.P.E.C. 2022-S142                           Issued 2022 September 22, 05:48 UT
    
         The Minor Planet Electronic Circulars contain information on unusual
             minor planets and routine data on comets.  They are published
        on behalf of Division F of the International Astronomical Union by the
              Minor Planet Center, Smithsonian Astrophysical Observatory,
                              Cambridge, MA 02138, U.S.A.
    
                 Prepared using the Tamkin Foundation Computer Network
    
                                  MPC@CFA.HARVARD.EDU
                URL https://www.minorplanetcenter.net/    ISSN 1523-6714
    
                                    2022 SV4                                 
    
    
    Observations:
         K22S04V  C2022 09 20.49249702 52 46.751-25 55 25.48               VES142F52
         K22S04V  C2022 09 20.49549702 52 44.532-25 54 22.12         19.19GVES142F52
         K22S04V* C2022 09 20.52631402 52 21.688-25 43 23.67         18.84wUES142F51
         K22S04V  C2022 09 20.54819602 52 05.417-25 35 33.75         19.40wUES142F51
         K22S04V  C2022 09 20.55926502 51 57.219-25 31 35.59         18.98wUES142F51
         K22S04V  C2022 09 20.93626602 48 59.892-23 13 20.86         19.42oVES142M22
         K22S04V  C2022 09 20.94168302 48 56.609-23 11 35.41         18.90oVES142M22
         K22S04V  C2022 09 20.94537002 48 54.307-23 10 22.73         19.07oVES142M22
         K22S04V  C2022 09 20.95525802 48 48.094-23 07 07.32         18.23oVES142M22
         K22S04V KC2022 09 21.90743 02 41 48.15 -18 10 12.8          19.0 GXES142221
         K22S04V KC2022 09 21.91595 02 41 43.87 -18 07 49.9          18.7 GXES142221
         K22S04V KC2022 09 21.92445 02 41 39.58 -18 05 28.6          18.6 GXES142221
         K22S04V KC2022 09 22.01223802 40 52.08 -17 47 25.0          18.4 GVES142L01
         K22S04V IC2022 09 22.01372502 40 51.35 -17 46 59.8          18.3 GVES142L01
         K22S04V KC2022 09 22.01521402 40 50.58 -17 46 34.5          18.1 GVES142L01
         K22S04V KC2022 09 22.01670602 40 49.81 -17 46 09.7          18.1 GVES142L01
         K22S04V KC2022 09 22.01819402 40 49.05 -17 45 44.7          18.3 GVES142L01
         K22S04V KC2022 09 22.02090002 40 52.06 -17 44 47.7          19.6 GXES142I93
         K22S04V KC2022 09 22.02706702 40 48.99 -17 43 04.5          19.1 GXES142I93
         K22S04V KC2022 09 22.03323102 40 45.91 -17 41 21.1          19.5 GXES142I93
    
    Observer details:
    221 IAS Observatory, Hakos.  Observer D. Husar.  0.20-m f/2.8 reflector + CCD.
    F51 Pan-STARRS 1, Haleakala.  Observers J. Bulger, T. Lowe, A. Schultz, I.
        Smith.  Measurers K. Chambers, S. Chastel, T. de Boer, J. Fairlamb, H.
        Gao, M. Huber, C.-C. Lin, E. Magnier, Y. Ramanjooloo, R. Wainscoat, R.
        Weryk.  1.8-m Ritchey-Chretien + CCD.
    F52 Pan-STARRS 2, Haleakala.  Observers J. Bulger, K. Chambers, T. Dukes, T.
        Lowe, A. Schultz, I. Smith.  Measurers S. Chastel, J. Fairlamb, M. Huber,
        Y. Ramanjooloo, R. Wainscoat, R. Weryk.  1.8-m Ritchey-Chretien + CCD.
    I93 St Pardon de Conques.  Observer F. Losse.  0.40-m f/3.7 reflector + CCD.
    L01 Visnjan Observatory, Tican.  Observers K. Korlevic, L. Poropat.  Measurer
        K. Korlevic.  1.0-m f/2.9 reflector + CCD.
    M22 ATLAS South Africa, Sutherland.  Observers L. Denneau, R. Siverd, J.
        Tonry, H. Weiland.  Measurers L. Denneau, N. Erasmus, A. Fitzsimmons, A.
        Lawrence, J. Robinson, R. Siverd, J. Tonry, H. Weiland.  0.5-m Reflector +
        CCD.
    
    Orbital elements:
    2022 SV4                                                 Earth MOID = 0.0160 AU
    Epoch 2022 Aug. 9.0 TT = JDT 2459800.5                  Veres                   
    M 351.43189              (2000.0)            P               Q                  
    n   0.67382246     Peri.  307.22909     +0.81931307     +0.57323474             
    a   1.2885632      Node    17.80366     -0.51361935     +0.74259026             
    e   0.2345394      Incl.    2.12078     -0.25479650     +0.34635480             
    P   1.46           H   25.60          G   0.15           U   7                  
    Residuals in seconds of arc
    220920 F52  0.1+  0.3+    220920 M22  0.1+  0.2-    220922 L01  0.3+  0.2+
    220920 F52  0.0   0.2-    220920 M22  0.1-  0.9+    220922 L01  0.1+  0.1-
    220920 F51  0.0   0.1-    220921 221  0.1+  0.3+    220922 L01  0.1+  0.2-
    220920 F51  0.1-  0.1+    220921 221  0.6-  0.7+    220922 I93  0.0   0.2-
    220920 F51  0.1+  0.1-    220921 221  0.8-  0.1-    220922 I93  0.2+  0.2-
    220920 M22  1.0-  0.4+    220922 L01  0.0   0.1-    220922 I93  0.5+  0.0
    220920 M22  0.1+  0.5-    220922 L01  0.4+  0.0
    
    Ephemeris:
    2022 SV4                 a,e,i = 1.29, 0.23, 2                   q = 0.9863
    Date    TT    R. A. (2000) Decl.     Delta      r    Elong.  Phase     V
    2022 08 23    13 19 23.8 -36 15 11   0.06576 0.9864    66.0   110.6    23.9
    ...
    2022 09 07    12 36 15.9 -55 18 02   0.02914 0.9957    64.6   113.8    22.3
    ...
    2022 09 15    05 22 40.7 -67 18 58   0.01625 1.0070    93.7    85.4    19.7
    ...
    2022 09 21    02 48 10.2 -22 54 03   0.02050 1.0180   131.8    47.3    19.0
    2022 09 22    02 40 50.1 -17 45 23   0.02229 1.0200   135.8    43.3    19.1
    2022 09 23    02 34 51.6 -13 23 20   0.02424 1.0221   139.1    40.0    19.2
    ...
    2022 09 29    02 13 18.4 +02 15 54   0.03814 1.0357   151.8    27.2    19.8
    ...
    2022 10 07    01 58 56.0 +10 41 30   0.05968 1.0565   161.9    17.0    20.5
    ...
    2022 10 22    01 44 26.1 +15 57 09   0.1070  1.1021   174.9     4.6    21.4
    
    M. P. C. Staff               (C) Copyright 2022 MPC           M.P.E.C. 2022-S142
    


    Read MPEC 2022-S141 Read MPEC 2022-S143


    MPEC number:

    Enter an MPEC number in one of the following forms:

    • 1997-B01 (the full form)
    • J97B01 (the packed version of the full form)
    • B01 (the abbreviated form)